Probability
0 0 0 0 0 0 0 0 0 0 0 0 0 0 0 0 0 0 0 0 0 0 0 0 0 0 0 0 0 0 0 0 0 0 0 0 0 0 0 0 0 0 0
0 0 0 0 0 0 0 0 0 0 0 0 0 0 0 0 0 0 0 0 0 0 0 0 0 0 0 0 0 0 0 0 0 0 0 0 0 0 0 0 0 0 0
0 0 0 0 0 0 0 0 0 0 0 0 0 0 0 0 0 0 0 0 0 0 0 0 0 0 0 0 0 0 0 0 0 0 0 0 0 0 0 0 0 0 0
0 0 0 0 0 0 0 0 0 0 0 0 0 0 0 0 0 0 0 0 0 0 0 0 0 0 0 0 0 0 0 0 0 0 0 0 0 0 0 0 0 0 0
0 0 0 0 0 0 0 0 0 0 0 0 0 0 0 0 0 0 0 0 0 0 0 0 0 0 0 0 0 0 0 0 0 0 0 0 0 0 0 0 0 0 0
0 0 0 0 0 0 0 0 0 0 0 0 0 0 0 0 0 0 0 0 0 0 0 0 0 0 0 0 0 0 0 0 0 0 0 0 0 0 0 0 0 0 0
0 0 0 0 0 0 0 0 0 0 0 0 0 0 0 0 0 0 0 0 0 0 0 0 0 0 0 0 0 0 0 0 0 0 0 0 0 0 0 0 0 0 0
0 0 0 0 0 0 0 0 0 0 0 0 0 0 0 0 0 0 0 0 0 0 0 0 0 0 0 0 0 0 0 0 0 0 0 0 0 0 0 0 0 0 0
0 0 0 0 0 0 0 0 0 0 0 0 0 0 0 0 0 0 0 0 0 0 0 0 0 0 0 0 0 0 0 0 0 0 0 0 0 0 0 0 0 0 0
0 0 0 0 0 0 0 0 0 0 0 0 0 0 0 0 0 0 0 0 0 0 0 0 0 0 0 0 0 0 0 0 0 0 0 0 0 0 0 0 0 0 0
0 0 0 0 0 0 0 0 0 0 0 0 0 0 0 0 0 0 0 0 0 0 0 0 0 0 0 0 0 0 0 0 0 0 0 0 0 0 0 0 0 0 0
0 0 0 0 0 0 0 0 0 0 0 0 0 0 0 0 0 0 0 0 0 0 0 0 0 0 0 0 0 0 0 0 0 0 0 0 0 0 0 0 0 0 0
0 0 0 0 0 0 0 0 0 0 0 0 0 0 0 0 0 0 0 0 0 0 0 0 0 0 0 0 0 0 0 0 0 0 0 0 0 0 0 0 0 0 0
0 0 0 0 0 0 0 0 0 0 0 0 0 0 0 0 0 0 0 0 0 0 0 0 0 0 0 0 0 0 0 0 0 0 0 0 0 0 0 0 0 0 0
0 0 0 0 0 0 0 0 0 0 0 0 0 0 0 0 0 0 0 0 0 0 0 0 0 0 0 0 0 0 0 0 0 0 0 0 0 0 0 0 0 0 0
0 0 0 0 0 0 0 0 0 0 0 0 0 0 0 0 0 0 0 0 0 0 0 0 0 0 0 0 0 0 0 0 0 0 0 0 0 0 0 0 0 0 0
0 0 0 0 0 0 0 0 0 0 0 0 0 0 0 0 0 0 0 0 0 0 0 0 0 0 0 0 0 0 0 0 0 0 0 0 0 0 0 0 0 0 0
0 0 0 0 0 0 0 0 0 0 0 0 0 0 0 0 0 0 0 0 0 0 0 0 0 0 0 0 0 0 0 0 0 0 0 0 0 0 0 0 0 0 0
0 0 0 0 0 0 0 0 0 0 0 0 0 0 0 0 0 0 0 0 0 0 0 0 0 0 0 0 0 0 0 0 0 0 0 0 0 0 0 0 0 0 0
0 0 0 0 0 0 0 0 0 0 0 0 0 0 0 0 0 0 0 0 0 0 0 0 0 0 0 0 0 0 0 0 0 0 0 0 0 0 0 0 0 0 0
0 0 0 0 0 0 0 0 0 0 0 0 0 0 0 0 0 0 0 0 0 0 0 0 0 0 0 0 0 0 0 0 0 0 0 0 0 0 0 0 0 0 0
0 0 0 0 0 0 0 0 0 0 0 0 0 0 0 0 0 0 0 0 0 0 0 0 0 0 0 0 0 0 0 0 0 0 0 0 0 0 0 0 0 0 0
0 0 0 0 0 0 0 0 0 0 0 0 0 0 0 0 0 0 0 0 0 0 0 0 0 0 0 0 0 0 0 0 0 0 0 0 0 0 0 0 0 0 0
0 0 0 0 0 0 0 0 0 0 0 0 0 0 0 0 0 0 0 0 0 0 0 0 0 0 0 0 0 0 0 0 0 0 0 0 0 0 0 0 0 0 0
0 0 0 0 0 0 0 0 0 0 0 0 0 0 0 0 0 0 0 0 0 0 0 0 0 0 0 0 0 0 0 0 0 0 0 0 0 0 0 0 0 0 0
0 0 0 0 0 0 0 0 0 0 0 0 0 0 0 0 0 0 0 0 0 0 0 0 0 0 0 0 0 0 0 0 0 0 0 0 0 0 0 0 0 0 0
Height
5840 5840 5840 5840 5839 5838 5837 5835 5834 5832 5830 5828 5826 5824 5821 5818 5816 5813 5810 5807 5803 5800 5797 5794 5790 5787 5783 5780 5776 5773 5770 5766 5763 5760 5758 5755 5752 5749 5747 5745 5743 5741 5739
5835 5835 5835 5835 5834 5833 5832 5830 5829 5827 5825 5822 5820 5817 5815 5812 5809 5806 5803 5800 5796 5793 5790 5786 5783 5779 5776 5772 5769 5765 5762 5758 5755 5752 5749 5746 5743 5741 5738 5736 5734 5731 5730
5831 5831 5830 5830 5829 5827 5826 5825 5823 5821 5819 5816 5814 5811 5808 5805 5802 5799 5796 5793 5789 5786 5782 5779 5775 5772 5768 5765 5761 5757 5754 5750 5747 5744 5741 5737 5734 5732 5729 5727 5724 5722 5720
5825 5825 5825 5824 5823 5822 5820 5819 5817 5814 5812 5810 5807 5804 5801 5798 5795 5792 5789 5785 5782 5778 5775 5771 5768 5764 5760 5757 5753 5749 5746 5742 5739 5735 5732 5729 5726 5723 5720 5717 5715 5713 5711
5819 5819 5819 5818 5817 5815 5814 5812 5810 5808 5806 5803 5800 5797 5794 5791 5788 5785 5782 5778 5774 5771 5767 5764 5760 5756 5752 5749 5745 5741 5738 5734 5731 5727 5723 5720 5717 5714 5711 5708 5706 5703 5701
5813 5813 5812 5812 5810 5809 5807 5805 5803 5801 5799 5796 5793 5790 5787 5784 5781 5778 5774 5771 5767 5764 5760 5756 5752 5748 5745 5741 5737 5733 5730 5726 5722 5719 5715 5711 5708 5705 5702 5699 5696 5694 5691
5806 5806 5805 5805 5803 5802 5800 5798 5796 5794 5792 5789 5786 5783 5780 5777 5774 5771 5767 5764 5760 5756 5752 5749 5745 5741 5737 5733 5729 5725 5721 5717 5714 5710 5706 5703 5699 5696 5693 5690 5687 5684 5682
5799 5799 5798 5797 5796 5795 5793 5791 5789 5787 5784 5782 5779 5776 5773 5770 5766 5763 5760 5756 5752 5749 5745 5741 5737 5733 5729 5725 5721 5717 5713 5709 5705 5702 5698 5694 5691 5687 5684 5681 5678 5675 5672
5791 5791 5791 5790 5789 5787 5785 5784 5782 5779 5777 5774 5771 5769 5766 5763 5759 5756 5752 5748 5745 5741 5737 5733 5729 5725 5721 5717 5713 5709 5705 5701 5697 5693 5689 5685 5682 5678 5675 5671 5668 5665 5662
5783 5783 5783 5782 5781 5779 5778 5776 5774 5772 5769 5767 5764 5761 5758 5755 5752 5748 5745 5741 5737 5733 5730 5726 5721 5717 5713 5709 5705 5701 5696 5692 5688 5683 5680 5676 5672 5668 5664 5661 5658 5655 5652
5775 5775 5775 5774 5773 5772 5770 5768 5766 5764 5762 5759 5756 5753 5750 5747 5744 5740 5737 5733 5729 5725 5721 5717 5713 5709 5705 5701 5696 5692 5688 5683 5679 5674 5670 5666 5662 5658 5654 5650 5647 5643 5640
5767 5767 5766 5766 5765 5764 5762 5760 5758 5756 5754 5751 5749 5746 5743 5740 5736 5732 5729 5725 5722 5718 5713 5709 5705 5701 5696 5692 5687 5683 5678 5674 5669 5664 5660 5656 5651 5647 5643 5639 5635 5631 5628
5759 5759 5758 5758 5757 5755 5754 5752 5750 5748 5746 5743 5741 5738 5735 5732 5728 5725 5721 5717 5713 5710 5705 5701 5696 5692 5687 5683 5678 5673 5668 5663 5659 5654 5649 5644 5640 5635 5631 5627 5623 5619 5615
5750 5750 5750 5749 5749 5747 5746 5744 5742 5740 5738 5735 5733 5730 5727 5724 5721 5717 5713 5709 5705 5701 5697 5692 5688 5683 5678 5673 5668 5663 5658 5653 5648 5642 5637 5633 5628 5623 5618 5613 5609 5604 5600
5742 5742 5741 5741 5740 5739 5737 5736 5734 5732 5729 5727 5724 5722 5719 5716 5712 5709 5705 5701 5697 5693 5689 5684 5679 5674 5668 5663 5658 5652 5647 5642 5636 5631 5625 5620 5614 5609 5604 5599 5593 5588 5584
5733 5733 5733 5732 5732 5730 5729 5727 5726 5723 5721 5719 5716 5713 5711 5708 5704 5700 5697 5692 5688 5684 5679 5675 5669 5664 5658 5653 5647 5641 5636 5630 5624 5618 5612 5606 5600 5594 5588 5582 5577 5571 5566
5724 5724 5724 5724 5723 5722 5721 5719 5717 5715 5713 5710 5708 5705 5702 5699 5696 5692 5688 5684 5679 5674 5670 5665 5659 5653 5647 5642 5636 5629 5623 5617 5611 5604 5598 5591 5584 5578 5571 5565 5559 5553 5547
5715 5716 5716 5715 5715 5714 5712 5711 5709 5707 5705 5702 5700 5697 5694 5691 5687 5683 5679 5675 5670 5665 5660 5655 5649 5643 5636 5630 5623 5617 5610 5603 5596 5589 5582 5575 5568 5560 5553 5547 5540 5534 5527
5707 5707 5707 5707 5706 5705 5704 5702 5700 5699 5696 5694 5691 5689 5686 5682 5679 5674 5670 5665 5660 5655 5649 5644 5638 5631 5625 5617 5611 5604 5596 5588 5581 5573 5566 5558 5550 5543 5535 5528 5520 5513 5507
5699 5699 5699 5699 5698 5696 5695 5694 5692 5690 5688 5686 5683 5680 5677 5674 5670 5665 5661 5656 5650 5645 5639 5633 5626 5619 5612 5604 5597 5590 5582 5574 5566 5557 5549 5541 5533 5525 5516 5508 5500 5493 5486
5690 5690 5690 5690 5689 5688 5687 5685 5684 5682 5680 5677 5675 5672 5668 5665 5660 5656 5651 5646 5640 5634 5627 5621 5614 5607 5599 5591 5583 5575 5567 5558 5550 5540 5532 5523 5515 5506 5498 5489 5481 5473 5466
5682 5682 5682 5681 5681 5680 5679 5677 5676 5674 5671 5669 5666 5663 5659 5656 5651 5646 5641 5635 5629 5623 5616 5609 5602 5594 5586 5577 5569 5559 5550 5542 5534 5525 5515 5507 5496 5488 5478 5470 5461 5453 5446
5673 5674 5674 5673 5673 5672 5671 5669 5667 5665 5663 5660 5657 5654 5650 5646 5641 5636 5630 5624 5618 5610 5604 5597 5589 5580 5572 5563 5554 5544 5534 5525 5516 5507 5498 5490 5479 5470 5461 5451 5443 5435 5429
5665 5665 5665 5665 5665 5664 5662 5661 5659 5657 5654 5651 5648 5644 5640 5636 5631 5626 5620 5613 5606 5599 5592 5584 5576 5567 5557 5547 5538 5529 5519 5510 5501 5490 5480 5472 5462 5453 5445 5435 5426 5419 5412
5657 5657 5657 5657 5656 5655 5654 5652 5650 5648 5645 5642 5639 5635 5630 5626 5621 5615 5609 5603 5595 5587 5579 5571 5562 5552 5543 5533 5523 5514 5504 5495 5486 5476 5465 5456 5447 5438 5430 5420 5411 5404 5397
5649 5649 5649 5649 5648 5647 5646 5644 5642 5639 5637 5633 5630 5625 5620 5615 5610 5604 5598 5591 5583 5575 5567 5558 5549 5539 5529 5519 5509 5499 5489 5479 5469 5461 5451 5441 5432 5423 5416 5408 5399 5391 5385
Wind_Speed
22 21 21 22 23 23 25 26 27 28 29 30 31 31 32 33 34 35 36 36 36 36 37 38 38 39 39 39 39 39 39 39 39 40 40 40 40 40 39 39 39 39 39
23 23 24 24 25 25 27 28 29 30 31 32 33 33 34 35 36 36 37 37 37 38 39 39 39 39 39 39 39 40 40 40 40 40 40 40 40 40 40 40 39 39 39
25 25 25 26 27 28 29 30 31 32 33 33 34 35 36 36 37 37 37 38 38 39 39 39 39 39 39 39 40 40 40 40 40 40 40 40 40 40 40 40 40 40 40
27 27 27 28 29 30 31 32 33 33 34 35 36 36 37 37 38 38 38 38 39 39 39 39 40 40 39 40 40 40 40 40 40 40 40 40 40 40 40 40 40 40 40
29 29 29 30 31 32 33 34 34 35 35 36 37 37 37 37 37 38 38 39 39 39 39 40 40 39 40 40 40 40 40 40 40 40 40 40 40 40 40 40 40 40 40
30 30 31 32 33 34 34 35 35 36 36 37 37 37 37 37 38 38 38 39 39 39 39 40 40 39 40 40 40 40 40 40 40 40 40 40 40 40 40 40 40 40 40
32 33 34 34 35 35 35 36 36 36 37 37 37 37 37 38 38 38 38 39 39 39 40 40 39 39 39 39 40 40 40 40 40 40 40 40 39 39 40 40 40 39 40
35 35 36 36 36 36 36 37 37 37 38 37 37 37 37 38 38 38 38 38 38 39 39 39 39 39 39 40 40 40 40 40 40 40 40 40 40 40 40 40 40 40 40
37 37 37 37 37 37 37 37 37 38 37 37 37 37 37 38 38 38 38 39 39 39 39 39 39 39 40 40 41 41 41 41 41 41 41 40 40 41 41 41 41 41 41
38 38 38 38 37 37 37 37 37 37 37 37 37 37 38 38 38 38 39 39 39 39 39 39 39 40 41 41 41 41 41 42 42 42 41 41 42 42 42 42 42 42 43
39 38 38 38 37 37 38 37 37 37 37 37 37 37 37 37 37 38 38 39 39 39 39 39 40 41 41 41 41 42 43 43 42 43 43 43 43 44 44 44 44 45 45
39 38 38 38 38 37 37 37 37 37 37 37 37 37 37 37 37 38 38 38 39 39 40 41 41 42 42 42 43 44 44 44 44 44 45 45 46 46 46 46 47 47 47
39 39 38 38 37 37 37 37 37 37 37 37 37 37 36 37 37 38 38 39 39 40 41 42 42 43 43 44 45 45 45 46 46 46 47 47 48 48 49 49 49 50 51
39 39 38 37 37 37 37 37 36 37 37 37 37 36 36 37 37 38 38 39 40 41 42 42 43 44 44 45 46 47 47 48 48 48 49 50 50 51 52 53 53 54 55
39 38 37 37 37 37 37 37 37 37 37 36 36 36 36 37 37 38 38 40 41 42 42 43 44 45 46 48 48 49 49 50 50 51 52 53 54 55 56 56 57 58 58
38 37 37 37 36 36 36 37 37 37 36 36 36 36 36 37 37 37 39 40 42 43 44 45 46 47 48 49 50 51 51 52 53 54 55 56 57 58 59 60 60 61 61
37 37 36 36 36 36 36 36 36 36 36 36 36 36 36 37 37 38 40 41 43 44 45 46 48 49 50 52 52 53 54 55 56 58 59 59 60 61 62 63 63 63 64
36 36 36 35 35 35 36 36 36 36 36 36 36 36 36 37 38 39 41 43 44 45 47 48 50 51 52 54 55 56 57 58 59 60 61 62 63 64 64 65 65 66 67
35 35 35 35 35 36 36 36 36 35 36 36 36 36 37 38 39 41 42 44 45 47 48 50 51 53 54 56 57 58 59 61 61 62 63 64 65 65 66 67 68 68 68
34 34 34 35 35 35 35 35 35 35 35 35 36 37 38 39 41 42 43 45 47 48 50 51 53 54 56 58 59 60 61 63 63 65 65 66 66 67 68 68 68 68 68
34 34 34 34 34 34 34 34 34 35 35 36 37 37 38 40 41 43 44 46 48 50 51 53 55 57 58 60 61 63 64 65 65 66 66 67 68 68 69 68 68 68 67
33 33 33 33 33 33 33 33 34 34 35 36 37 38 39 40 42 44 46 48 49 51 53 55 57 58 60 62 64 65 65 66 66 66 66 67 68 68 68 67 66 65 63
32 32 32 32 32 32 32 33 33 34 35 36 37 38 39 41 43 45 47 49 51 53 55 56 58 60 62 63 65 65 65 65 66 67 68 67 67 66 65 64 63 61 59
31 31 31 31 31 32 32 33 34 34 35 36 37 39 40 42 44 46 47 49 52 54 55 58 60 62 63 64 65 65 65 66 67 67 67 66 64 63 62 61 59 58 56
30 30 30 30 31 31 32 33 34 34 35 36 38 39 41 42 44 46 48 50 53 54 57 59 61 62 63 64 65 65 66 66 65 65 65 64 62 61 59 57 56 54 52
30 30 30 30 30 31 32 33 33 34 35 37 38 40 41 43 45 47 49 52 53 56 58 60 61 63 64 65 65 65 65 65 64 63 62 61 59 57 54 52 51 49 46
Wind_Direction
262 264 267 272 276 280 283 287 290 293 295 296 296 297 297 298 299 300 301 300 300 300 301 301 300 299 299 298 298 296 295 295 293 292 291 290 289 287 286 284 282 281 280
262 264 268 273 276 280 284 288 290 293 294 296 296 297 297 298 299 300 300 301 301 301 302 301 301 300 300 299 298 297 296 295 294 293 292 291 290 288 287 285 283 282 281
262 266 270 274 278 281 285 288 291 293 294 296 297 297 298 298 299 300 301 301 301 301 302 302 301 301 300 299 298 297 296 295 294 294 293 291 290 289 288 286 285 284 283
264 268 272 275 278 281 285 288 291 293 294 296 297 297 297 298 300 300 301 300 301 301 301 301 301 301 300 300 299 298 297 297 296 295 294 292 291 290 288 287 286 285 283
266 269 273 276 279 282 285 288 290 292 294 295 297 297 297 298 300 300 301 301 301 301 302 302 302 301 301 300 300 299 298 298 298 296 295 294 292 291 289 288 287 285 284
268 271 273 277 279 282 286 288 290 292 293 295 297 298 298 299 299 300 300 301 301 301 302 303 302 301 301 301 300 300 300 299 298 297 296 295 294 292 291 290 288 287 285
268 271 274 277 280 283 286 288 290 291 293 295 296 297 298 298 299 300 301 301 301 302 302 303 302 302 302 301 301 301 301 300 299 298 297 296 294 293 292 291 290 288 287
268 271 275 278 281 283 285 288 290 292 293 295 296 296 297 298 299 299 300 301 301 301 302 303 303 303 302 303 303 303 302 301 300 299 298 296 295 294 293 292 290 289 287
268 272 275 279 281 283 285 288 290 292 293 294 295 296 297 298 298 299 300 300 301 302 303 303 303 303 303 303 303 303 303 302 301 299 298 297 296 295 294 292 291 289 288
269 273 275 278 281 283 285 287 289 291 292 293 294 296 296 297 298 299 300 300 301 302 303 303 303 304 304 304 304 304 303 302 301 300 299 297 296 295 294 292 291 289 288
270 272 275 278 280 282 285 287 288 290 291 292 294 295 296 297 298 299 300 301 301 302 303 303 304 304 304 304 304 304 303 302 301 301 299 298 297 296 294 293 292 290 289
269 272 275 278 280 282 284 286 287 289 290 291 293 294 295 297 298 299 300 301 302 302 303 303 304 304 304 304 304 304 304 302 301 300 299 298 297 296 295 294 293 291 290
269 272 275 277 279 281 283 285 286 288 289 291 292 293 294 296 297 298 300 301 301 302 303 303 304 304 304 304 304 304 304 303 302 301 300 299 298 297 296 294 293 291 290
268 271 274 276 278 281 283 284 285 286 288 289 291 292 293 295 297 298 299 301 302 302 303 303 304 304 304 304 304 304 304 303 302 301 300 299 298 297 296 295 293 292 291
268 270 272 275 278 280 281 283 284 286 287 288 289 291 293 295 296 298 299 300 301 302 302 303 304 304 303 304 304 304 303 302 301 301 300 300 298 297 296 295 294 293 291
266 268 271 274 276 278 280 282 283 285 286 287 288 290 292 294 296 297 299 300 301 301 301 302 303 303 303 303 303 303 303 302 302 301 300 299 298 297 297 296 295 293 291
264 267 270 273 276 278 279 280 282 283 285 286 288 290 292 294 296 298 299 299 300 300 301 302 303 303 303 303 304 304 303 302 302 301 300 300 299 299 298 297 295 294 292
263 266 270 273 275 276 277 279 280 282 284 286 288 290 292 294 296 297 298 299 300 301 302 302 303 303 304 304 304 304 303 303 302 302 301 301 300 300 299 298 296 295 293
263 266 269 271 273 275 277 278 280 282 283 286 287 290 292 294 296 297 298 299 300 301 302 303 303 304 304 304 304 304 304 303 303 303 302 302 301 300 299 299 297 296 295
264 267 269 271 272 274 276 278 280 281 283 285 287 290 292 294 295 297 298 299 300 301 302 303 304 304 304 304 304 304 304 304 304 303 303 302 301 301 300 299 299 298 297
263 265 267 269 272 274 276 278 280 282 284 286 288 291 292 294 296 297 298 299 300 302 303 304 304 305 305 305 305 305 305 304 304 304 303 303 302 302 301 300 299 299 298
262 264 267 269 271 274 276 278 280 282 285 287 289 291 293 295 296 297 299 300 301 303 304 304 305 306 306 306 306 306 305 305 305 305 305 304 304 303 302 301 301 300 300
262 264 266 269 271 274 276 279 281 284 287 289 290 292 294 295 297 298 300 301 302 304 305 305 306 306 306 306 306 307 307 307 307 306 306 306 305 304 304 303 302 302 301
262 264 266 269 271 274 277 280 283 286 288 290 292 293 295 297 298 299 301 302 304 304 305 306 307 307 307 307 307 307 307 307 308 308 308 307 306 306 306 304 304 303 302
261 264 267 270 273 276 279 282 285 287 289 291 293 295 296 297 299 301 302 303 304 305 306 307 307 307 308 308 308 308 308 309 309 309 309 308 308 308 307 306 305 304 303
261 265 268 271 274 277 281 284 286 288 290 292 295 296 298 299 301 302 304 304 305 306 307 308 308 308 308 308 309 309 310 310 310 310 310 309 310 309 309 308 306 305 304